Provincetown, Massachusetts, United States (02657)
Lat: 42.06N, Lon: 70.18W
Wx Zone: MAZ022
Local Info
Past Weather Observations for Today

NOTE: This archive is for the closest National Weather Service station to Provincetown. Information may differ from the station used for current weather conditions.

Click here for Long-term Archive

Time Weather Temperature Dewpoint Humidity Pressure Winds Precip Visibility
22:15
Overcast
30°F / -1°C 27°F / -3°C 86% 30.18 in
(1022 mb)
S 8.1 mph
(S 13 kph)
- 2SM
21:55
Overcast
30°F / -1°C 27°F / -3°C 86% 30.21 in
(1023 mb)
S 8.1 mph
(S 13 kph)
- 2SM
21:35
Overcast
30°F / -1°C 28°F / -2°C 93% 30.24 in
(1024 mb)
S 8.1 mph
(S 13 kph)
- 2SM
21:15
Overcast
30°F / -1°C 27°F / -3°C 86% 30.24 in
(1024 mb)
S 9.2 mph
(S 15 kph)
- 2SM
20:55
Overcast
28°F / -2°C 27°F / -3°C 93% 30.27 in
(1025 mb)
S 9.2 mph
(S 15 kph)
- 2SM
20:35
Overcast
28°F / -2°C 27°F / -3°C 93% 30.27 in
(1025 mb)
S 8.1 mph
(S 13 kph)
- 2SM
20:15
Overcast
28°F / -2°C 27°F / -3°C 93% 30.3 in
(1026 mb)
S 9.2 mph
(S 15 kph)
- 1 3/4SM
19:55
Overcast
28°F / -2°C 27°F / -3°C 93% 30.3 in
(1026 mb)
S 9.2 mph
(S 15 kph)
- 2SM
19:35
Overcast
28°F / -2°C 27°F / -3°C 93% 30.33 in
(1027 mb)
S 9.2 mph
(S 15 kph)
- 1 3/4SM
19:15
Overcast
28°F / -2°C 27°F / -3°C 93% 30.33 in
(1027 mb)
S 11.5 mph
(S 19 kph)
- 1 3/4SM
18:55
Overcast
28°F / -2°C 27°F / -3°C 93% 30.33 in
(1027 mb)
S 9.2 mph
(S 15 kph)
- 2 1/2SM
18:35
Overcast
27°F / -3°C 25°F / -4°C 93% 30.36 in
(1028 mb)
S 9.2 mph
(S 15 kph)
- 2 1/2SM
18:15
Overcast
27°F / -3°C 25°F / -4°C 93% 30.36 in
(1028 mb)
S 8.1 mph
(S 13 kph)
- 2 1/2SM
17:55
Overcast
27°F / -3°C 25°F / -4°C 93% 30.39 in
(1029 mb)
S 9.2 mph
(S 15 kph)
- 2 1/2SM
17:35
Overcast
27°F / -3°C 25°F / -4°C 93% 30.39 in
(1029 mb)
S 8.1 mph
(S 13 kph)
- 3SM
17:15
Mostly Cloudy
27°F / -3°C 25°F / -4°C 93% 30.42 in
(1030 mb)
S 9.2 mph
(S 15 kph)
- 4SM
16:55
Partly Cloudy
27°F / -3°C 25°F / -4°C 93% 30.42 in
(1030 mb)
S 9.2 mph
(S 15 kph)
- 5SM
16:35
Mostly Cloudy
27°F / -3°C 23°F / -5°C 86% 30.45 in
(1031 mb)
S 9.2 mph
(S 15 kph)
- 5SM
16:15
Mostly Cloudy
27°F / -3°C 23°F / -5°C 86% 30.45 in
(1031 mb)
S 9.2 mph
(S 15 kph)
- 4SM
15:55
Overcast
27°F / -3°C 25°F / -4°C 93% 30.45 in
(1031 mb)
SSE 9.2 mph
(SSE 15 kph)
- 1 1/2SM
15:35
Mostly Cloudy
27°F / -3°C 25°F / -4°C 93% 30.48 in
(1032 mb)
SW 11.5 mph
(SW 19 kph)
- 2 1/2SM
15:15
Mostly Cloudy
27°F / -3°C 25°F / -4°C 93% 30.51 in
(1033 mb)
SW 12.7 mph
(SW 20 kph)
- 1 1/2SM
14:55
Overcast
27°F / -3°C 23°F / -5°C 86% 30.51 in
(1033 mb)
SW 13.8 mph
(SW 22 kph)
0.02 in
(0.51 mm)
1 1/4SM
14:35
Clear
28°F / -2°C 19°F / -7°C 69% 30.51 in
(1033 mb)
SW 20.7 mph
(SW 33 kph)
0.01 in
(0.25 mm)
7SM
14:15
Clear
28°F / -2°C 16°F / -9°C 59% 30.51 in
(1033 mb)
SSE 11.5 mph
(SSE 19 kph)
- 10SM
13:55
Clear
28°F / -2°C 12°F / -11°C 51% 30.54 in
(1034 mb)
SW 16.1 mph
(SW 26 kph)
- 10SM
13:35
Clear
28°F / -2°C 10°F / -12°C 47% 30.54 in
(1034 mb)
SW 11.5 mph
(SW 19 kph)
- 10SM
13:15
Clear
28°F / -2°C 12°F / -11°C 51% 30.54 in
(1034 mb)
SW 10.4 mph
(SW 17 kph)
- 10SM
12:55
Clear
28°F / -2°C 12°F / -11°C 51% 30.57 in
(1035 mb)
SW 9.2 mph
(SW 15 kph)
- 10SM
12:35
Clear
28°F / -2°C 10°F / -12°C 47% 30.57 in
(1035 mb)
SW 8.1 mph
(SW 13 kph)
- 10SM
12:15
Clear
28°F / -2°C 10°F / -12°C 47% 30.6 in
(1036 mb)
SW 6.9 mph
(SW 11 kph)
- 10SM
11:55
Clear
28°F / -2°C 10°F / -12°C 47% 30.6 in
(1036 mb)
SSE 9.2 mph
(SSE 15 kph)
0.01 in
(0.25 mm)
10SM
11:35
Clear
27°F / -3°C 10°F / -12°C 50% 30.6 in
(1036 mb)
SW 8.1 mph
(SW 13 kph)
0.01 in
(0.25 mm)
10SM
11:15
Clear
27°F / -3°C 12°F / -11°C 54% 30.63 in
(1037 mb)
SW 11.5 mph
(SW 19 kph)
- 10SM
10:55
Clear
27°F / -3°C 12°F / -11°C 54% 30.63 in
(1037 mb)
SW 9.2 mph
(SW 15 kph)
0.01 in
(0.25 mm)
10SM
10:35
Clear
27°F / -3°C 10°F / -12°C 50% 30.63 in
(1037 mb)
SW 9.2 mph
(SW 15 kph)
0.01 in
(0.25 mm)
10SM
10:15
Clear
27°F / -3°C 12°F / -11°C 54% 30.66 in
(1038 mb)
SW 11.5 mph
(SW 19 kph)
- 10SM
09:55
Clear
27°F / -3°C 14°F / -10°C 59% 30.66 in
(1038 mb)
S 11.5 mph
(S 19 kph)
0.01 in
(0.25 mm)
10SM
09:35
Clear
27°F / -3°C 14°F / -10°C 59% 30.66 in
(1038 mb)
SW 8.1 mph
(SW 13 kph)
0.01 in
(0.25 mm)
10SM
09:15
Clear
25°F / -4°C 16°F / -9°C 69% 30.66 in
(1038 mb)
SSW 8.1 mph
(SSW 13 kph)
- 10SM
08:55
Clear
25°F / -4°C 16°F / -9°C 69% 30.69 in
(1039 mb)
SSW 5.8 mph
(SSW 9 kph)
- 10SM
08:35
Clear
25°F / -4°C 16°F / -9°C 69% 30.69 in
(1039 mb)
SSW 6.9 mph
(SSW 11 kph)
- 10SM
08:15
Clear
25°F / -4°C 18°F / -8°C 74% 30.69 in
(1039 mb)
SSW 6.9 mph
(SSW 11 kph)
- 10SM
07:55
Clear
25°F / -4°C 18°F / -8°C 74% 30.69 in
(1039 mb)
SSW 9.2 mph
(SSW 15 kph)
- 10SM
07:35
Clear
19°F / -7°C 16°F / -9°C 86% 30.69 in
(1039 mb)
SSW 4.6 mph
(SSW 7 kph)
- 10SM
07:15
Clear
12°F / -11°C 9°F / -13°C 85% 30.69 in
(1039 mb)
SW 4.6 mph
(SW 7 kph)
- 10SM
06:55
Clear
10°F / -12°C 3°F / -16°C 72% 30.69 in
(1039 mb)
SW 5.8 mph
(SW 9 kph)
- 10SM
06:35
Clear
9°F / -13°C 5°F / -15°C 85% 30.69 in
(1039 mb)
SW 4.6 mph
(SW 7 kph)
- 10SM
06:15
Clear
7°F / -14°C 3°F / -16°C 85% 30.69 in
(1039 mb)
SSE 3.5 mph
(SSE 6 kph)
- 10SM
05:55
Clear
7°F / -14°C 3°F / -16°C 85% 30.69 in
(1039 mb)
SW 3.5 mph
(SW 6 kph)
- 10SM
05:35
Clear
7°F / -14°C 1°F / -17°C 78% 30.69 in
(1039 mb)
SW 3.5 mph
(SW 6 kph)
- 10SM
05:15
Clear
7°F / -14°C 3°F / -16°C 85% 30.69 in
(1039 mb)
Calm - 10SM
04:55
Clear
9°F / -13°C 5°F / -15°C 85% 30.69 in
(1039 mb)
Calm 0.01 in
(0.25 mm)
10SM
04:35
Clear
9°F / -13°C 3°F / -16°C 78% 30.69 in
(1039 mb)
Calm 0.01 in
(0.25 mm)
10SM
04:15
Clear
10°F / -12°C 7°F / -14°C 85% 30.69 in
(1039 mb)
Calm 0.01 in
(0.25 mm)
10SM
03:55
Clear
10°F / -12°C 9°F / -13°C 92% 30.69 in
(1039 mb)
W 3.5 mph
(W 6 kph)
- 10SM
03:35
Clear
12°F / -11°C 9°F / -13°C 85% 30.69 in
(1039 mb)
NW 3.5 mph
(NW 6 kph)
- 10SM
03:15
Clear
12°F / -11°C 9°F / -13°C 85% 30.69 in
(1039 mb)
Calm - 10SM
02:55
Clear
12°F / -11°C 7°F / -14°C 79% 30.69 in
(1039 mb)
Calm 0.02 in
(0.51 mm)
10SM
02:35
Clear
21°F / -6°C 10°F / -12°C 63% 30.69 in
(1039 mb)
NW 3.5 mph
(NW 6 kph)
0.02 in
(0.51 mm)
10SM
02:15
Clear
23°F / -5°C 10°F / -12°C 58% 30.71 in
(1040 mb)
W 6.9 mph
(W 11 kph)
- 10SM
01:55
Clear
23°F / -5°C 10°F / -12°C 58% 30.71 in
(1040 mb)
W 6.9 mph
(W 11 kph)
- 10SM
01:35
Clear
23°F / -5°C 10°F / -12°C 58% 30.71 in
(1040 mb)
W 8.1 mph
(W 13 kph)
- 10SM
01:15
Clear
25°F / -4°C 10°F / -12°C 54% 30.71 in
(1040 mb)
SSW 8.1 mph
(SSW 13 kph)
- 10SM
00:55
Clear
25°F / -4°C 10°F / -12°C 54% 30.71 in
(1040 mb)
SSW 9.2 mph
(SSW 15 kph)
- 10SM
00:35
Clear
25°F / -4°C 9°F / -13°C 50% 30.71 in
(1040 mb)
SSW 8.1 mph
(SSW 13 kph)
- 10SM
00:15
Clear
25°F / -4°C 9°F / -13°C 50% 30.71 in
(1040 mb)
SSW 10.4 mph
(SSW 17 kph)
- 10SM
Time Weather Temperature Dewpoint Humidity Pressure Winds Precip Visibility


Weather for websites

WeatherForYou.com, LLC is not responsible for any damages or problems caused by this service. Current weather conditions are obtained from the closest station including government and personal stations which may have varying degrees of accuracy. Weather forecasts are derived from the NOAA NDFD. Like all things, this site belongs to Jesus Christ... He just trusts me to maintain it. If you have any questions or comments email webmaster@weatherforyou.com

Copyright © 2015, WeatherForYou.com LLC. All rights reserved.